Date String (YYYY-MM-DD hh:mm:ss) UTC,Instrument flags,Ambient pressure (hPa),Sample flow (lpm),Bypass flow (lpm),Sample temperature (°C),Ambient temperature (°C),ASC tube jacket temperature (°C),LED temperature (°C),Box temperature (°C),Sample RH (%),Span deviation,Mass concentration (μg/m³),Mass concentration (μg/m³),Mass concentration (μg/m³)
DateTimeUTC,F1_M11,P_M11,Q1_M11,Q2_M11,T1_M11,T2_M11,T3_M11,T4_M11,T5_M11,U1_M11,ZSPAN_M11,X0_M11,X2_M11,X1_M11
2022-01-07 03:00:00,,0818.2,5.01,0.00,21.6,22.4,00.0,30.7,23.4,05.8,0002.2,0016.37,0010.22,0009.38
2022-01-07 03:01:00,,0817.9,5.00,0.00,21.8,22.6,00.0,30.7,23.6,05.8,0002.2,0016.35,0010.22,0009.40
2022-01-07 03:02:00,,0817.7,5.00,0.00,21.8,22.2,00.0,30.7,23.5,05.8,0002.0,0016.40,0010.27,0009.41
2022-01-07 03:03:00,,0817.5,4.99,0.00,21.7,21.6,00.0,30.7,23.3,05.8,0001.9,0015.82,0010.32,0009.42
2022-01-07 03:04:00,,0817.1,5.00,0.00,21.7,21.3,00.0,30.7,23.2,05.8,0001.4,0016.10,0010.40,0009.44
2022-01-07 03:05:00,,0817.2,5.01,0.00,21.6,21.1,00.0,30.7,23.1,05.9,0001.1,0016.49,0010.41,0009.47
2022-01-07 03:06:00,,0817.7,4.99,0.00,21.5,20.9,00.0,30.7,23.0,05.9,0001.0,0016.82,0010.44,0009.50
2022-01-07 03:07:00,,0817.8,5.00,0.00,21.5,20.9,00.0,30.7,23.0,05.9,0001.4,0016.78,0010.48,0009.51
2022-01-07 03:08:00,,0817.4,5.00,0.00,21.6,21.5,00.0,30.7,23.2,05.9,0001.6,0016.79,0010.51,0009.52
2022-01-07 03:09:00,,0816.8,4.99,0.00,21.7,22.4,00.0,30.7,23.5,05.9,0001.9,0016.76,0010.52,0009.54
2022-01-07 03:10:00,,0817.1,5.00,0.00,21.9,23.0,00.0,30.8,23.8,05.9,0002.1,0017.11,0010.53,0009.58
2022-01-07 03:11:00,,0817.2,5.00,0.00,22.0,22.9,00.0,30.8,23.8,05.9,0002.8,0017.35,0010.61,0009.64
2022-01-07 03:12:00,,0817.4,5.00,0.00,22.0,22.4,00.0,30.8,23.7,05.9,0003.1,0017.62,0010.66,0009.67
2022-01-07 03:13:00,,0816.9,5.00,0.00,21.9,22.0,00.0,30.8,23.5,05.8,0003.4,0017.76,0010.69,0009.68
2022-01-07 03:14:00,,0816.7,5.00,0.00,21.8,21.7,00.0,30.8,23.4,05.9,0003.4,0017.79,0010.71,0009.72
2022-01-07 03:15:00,,0817.4,5.01,0.00,21.8,21.4,00.0,30.8,23.3,06.1,0003.5,0017.70,0010.74,0009.77
2022-01-07 03:16:00,,0817.5,5.00,0.00,21.7,21.0,00.0,30.8,23.1,06.1,0003.7,0017.40,0010.80,0009.80
2022-01-07 03:17:00,,0816.7,4.99,0.00,21.6,20.7,00.0,30.7,22.9,06.1,0003.8,0016.98,0010.75,0009.77
2022-01-07 03:18:00,,0816.4,5.01,0.00,21.6,21.4,00.0,30.8,23.1,06.0,0003.9,0017.03,0010.73,0009.74
2022-01-07 03:19:00,,0816.8,4.99,0.00,21.7,22.2,00.0,30.8,23.5,06.1,0003.9,0017.10,0010.73,0009.74
2022-01-07 03:20:00,,0817.3,5.00,0.00,21.9,23.0,00.0,30.8,23.8,06.1,0003.9,0017.54,0010.77,0009.75
2022-01-07 03:21:00,,0817.7,5.00,0.00,22.0,22.7,00.0,30.9,23.8,05.9,0003.9,0017.35,0010.74,0009.73
2022-01-07 03:22:00,,0817.4,4.99,0.00,21.9,22.2,00.0,30.9,23.6,06.0,0003.5,0017.01,0010.69,0009.69
2022-01-07 03:23:00,,0817.1,5.01,0.00,21.8,21.8,00.0,30.9,23.4,06.0,0003.1,0017.02,0010.70,0009.70
2022-01-07 03:24:00,,0816.9,4.99,0.00,21.8,21.5,00.0,30.8,23.3,06.1,0002.8,0016.85,0010.70,0009.74
2022-01-07 03:25:00,,0816.9,5.00,0.00,21.7,21.2,00.0,30.8,23.2,06.1,0002.9,0016.81,0010.69,0009.73
2022-01-07 03:26:00,,0817.4,4.99,0.00,21.7,21.0,00.0,30.8,23.1,06.1,0003.0,0016.78,0010.68,0009.70
2022-01-07 03:27:00,,0817.6,5.01,0.00,21.6,21.1,00.0,30.8,23.1,06.1,0003.0,0016.80,0010.65,0009.64
2022-01-07 03:28:00,,0817.5,5.00,0.00,21.7,21.8,00.0,30.8,23.4,06.0,0002.8,0016.91,0010.66,0009.62
2022-01-07 03:29:00,,0817.3,5.00,0.00,21.9,22.6,00.0,30.9,23.7,06.0,0002.4,0016.85,0010.71,0009.65
2022-01-07 03:30:00,,0817.0,5.00,0.00,22.1,23.1,00.0,30.9,24.0,05.9,0002.2,0016.89,0010.72,0009.64
2022-01-07 03:31:00,,0817.4,5.00,0.00,22.1,22.8,00.0,30.9,23.9,05.8,0001.8,0016.41,0010.66,0009.61
2022-01-07 03:32:00,,0817.5,5.01,0.00,22.0,22.2,00.0,30.9,23.7,05.8,0001.3,0016.20,0010.70,0009.60
2022-01-07 03:33:00,,0817.0,4.99,0.00,21.9,21.6,00.0,30.9,23.3,05.8,0001.7,0016.34,0010.74,0009.61
2022-01-07 03:34:00,,0817.3,5.00,0.00,21.7,21.2,00.0,30.9,23.1,05.9,0001.9,0016.20,0010.74,0009.59
2022-01-07 03:35:00,,0817.4,5.01,0.00,21.7,21.0,00.0,30.9,23.0,05.9,0001.7,0016.08,0010.68,0009.57
2022-01-07 03:36:00,,0817.0,4.99,0.00,21.6,21.0,00.0,30.8,23.0,06.0,0001.6,0016.27,0010.69,0009.58
2022-01-07 03:37:00,,0817.2,5.01,0.00,21.7,21.8,00.0,30.9,23.3,06.2,0001.3,0016.32,0010.70,0009.61
2022-01-07 03:38:00,,0817.9,4.99,0.00,21.8,22.7,00.0,30.9,23.6,06.4,0001.3,0016.83,0010.77,0009.69
2022-01-07 03:39:00,,0817.9,5.00,0.00,22.0,22.8,00.0,30.9,23.7,06.3,0001.7,0017.09,0010.88,0009.77
2022-01-07 03:40:00,,0817.6,5.01,0.00,22.0,22.4,00.0,30.9,23.7,06.2,0001.9,0017.08,0010.85,0009.78
2022-01-07 03:41:00,,0817.5,5.02,0.00,21.9,22.0,00.0,30.9,23.5,06.1,0001.8,0017.19,0010.83,0009.79
2022-01-07 03:42:00,,0817.5,4.99,0.00,21.8,21.7,00.0,30.9,23.4,06.1,0002.0,0017.71,0010.89,0009.83
2022-01-07 03:43:00,,0817.7,5.00,0.00,21.8,21.4,00.0,30.9,23.3,06.1,0002.2,0017.69,0010.91,0009.86
2022-01-07 03:44:00,,0818.0,5.01,0.00,21.7,21.3,00.0,30.9,23.2,06.1,0001.9,0017.78,0010.94,0009.90
2022-01-07 03:45:00,,0817.9,4.99,0.00,21.8,21.6,00.0,30.9,23.4,06.1,0002.2,0018.41,0010.90,0009.89
2022-01-07 03:46:00,,0817.7,5.00,0.00,21.9,22.4,00.0,30.9,23.7,06.0,0002.5,0018.56,0010.91,0009.89
2022-01-07 03:47:00,,0817.7,5.02,0.00,22.1,23.1,00.0,31.0,24.0,05.9,0002.7,0018.35,0010.90,0009.89
2022-01-07 03:48:00,,0817.3,4.98,0.00,22.2,23.3,00.0,31.0,24.1,05.9,0002.8,0018.35,0010.89,0009.86
2022-01-07 03:49:00,,0816.9,5.00,0.00,22.2,22.8,00.0,31.0,24.0,05.9,0002.8,0017.68,0010.78,0009.82
2022-01-07 03:50:00,,0816.9,5.01,0.00,22.2,22.4,00.0,31.0,23.8,06.0,0002.6,0018.00,0010.77,0009.81
2022-01-07 03:51:00,,0817.0,5.00,0.00,22.1,22.0,00.0,31.0,23.7,06.1,0002.9,0018.55,0010.89,0009.87
2022-01-07 03:52:00,,0817.0,4.98,0.00,22.0,21.5,00.0,31.0,23.4,06.1,0003.2,0019.21,0010.99,0009.94
2022-01-07 03:53:00,,0816.9,5.00,0.00,21.8,21.1,00.0,31.0,23.1,06.2,0003.1,0018.76,0011.02,0009.98
2022-01-07 03:54:00,,0816.7,5.00,0.00,21.7,20.9,00.0,30.9,23.0,06.4,0003.1,0018.81,0011.05,0010.03
2022-01-07 03:55:00,,0816.5,4.99,0.00,21.7,21.5,00.0,30.9,23.2,06.5,0003.0,0018.84,0011.10,0010.06
2022-01-07 03:56:00,,0816.4,5.00,0.00,21.9,22.3,00.0,31.0,23.6,06.4,0002.8,0018.32,0011.19,0010.12
2022-01-07 03:57:00,,0816.6,5.00,0.00,22.0,22.9,00.0,31.0,23.8,06.3,0002.8,0018.24,0011.24,0010.16
2022-01-07 03:58:00,,0817.0,5.01,0.00,22.0,22.6,00.0,31.0,23.7,06.3,0002.6,0018.21,0011.28,0010.20
2022-01-07 03:59:00,,0817.0,5.01,0.00,21.9,22.0,00.0,31.0,23.3,06.4,0002.4,0018.30,0011.30,0010.23
